Regional Weather Roundup
Issued by NWS

Home | Current Version | Previous Version | Text Only | Print | Product List | Glossary Off
Versions: 1 2 3 4 5 6 7 8 9 10 11 12 13 14 15 16 17 18 19 20 21 22 23 24 25 26 27 28 29 30 31 32 33 34 35 36 37 38 39 40 41 42 43 44 45 46 47 48 49 50

000
ASUS43 KIND 202209
RWRIN

WEATHER ROUNDUP FOR INDIANA
NATIONAL WEATHER SERVICE INDIANAPOLIS IN
500 PM EST THU NOV 20 2014

NOTE: "FAIR" INDICATES FEW OR NO CLOUDS BELOW 12,000 FEET WITH NO
SIGNIFICANT WEATHER AND/OR OBSTRUCTIONS TO VISIBILITY.

* - STATION DOES NOT REPORT WEATHER SUCH AS PRECIPITATION OR FOG.

+ - STATION NOT QUALITY CONTROLLED BY THE NATIONAL WEATHER SERVICE.
    USE DATA WITH CAUTION...ESPECIALLY DEWPOINT AND RELATIVE
    HUMIDITY OBSERVATIONS.

INZ001>003-010>013-019-020-202300-
NORTHWEST INDIANA

CITY           SKY/WX    TMP DP  RH WIND       PRES   REMARKS
GARY /AIRPORT/ PTCLDY    28   1  31 W20G32    30.11R WCI  15
KNOX *+        CLEAR     28   3  34 W17G26    30.09R WCI  15
LA PORTE +     CLEAR     28   5  37 W17G24    30.09R WCI  16
MICHIGAN CITY+ PTCLDY    28   1  31 W14G21    30.09R WCI  17
MONTICELLO +   CLEAR     29  11  48 W13       30.12R WCI  19
RENSSELAER +   CLEAR     30  10  43 W15G21    30.12R WCI  19
VALPARAISO     CLEAR     26   3  37 W16       30.10R WCI  14

$$

LMZ046-743>745-202300-
SOUTHERN LAKE MICHIGAN

STATION/POSITION TIME  TEMP WIND        PRES
                       AIR  DIR/SP/G
                 (UTC) (F)  (DEG/KT/KT) (MB)
MICHIGAN CITY    2200   28  250/ 26/ 30   N/A

$$

INZ004-005-014>016-021>024-202300-
NORTH CENTRAL INDIANA

CITY           SKY/WX    TMP DP  RH WIND       PRES   REMARKS
ELKHART        PTCLDY    25   7  46 W17G26    30.07R WCI  11
GOSHEN         CLEAR     25   9  50 W17       30.06R WCI  12
LOGANSPORT +   FAIR      28  12  50 W14       30.12R WCI  17
PERU/GRISSOM   PTCLDY    27  16  63 W13       30.09R WCI  16
ROCHESTER +    CLEAR     32   9  37 W14G21    30.09R WCI  22
SOUTH BEND     PTCLDY    26   7  44 W13       30.07R WCI  15
WARSAW +       CLEAR     27   9  46 W20       30.06R WCI  13

$$

INZ006>009-017-018-025>027-202300-
NORTHEAST INDIANA

CITY           SKY/WX    TMP DP  RH WIND       PRES   REMARKS
ANGOLA *+      PTCLDY    25  10  54 W9        30.03R WCI  15
AUBURN +       PTCLDY    27   9  46 W15G21    30.05R WCI  15
FORT WAYNE     PTCLDY    26  12  55 W20       30.07R WCI  12
HUNTINGTON +   PTCLDY    27  12  54 W14G28    30.08R WCI  15

$$

INZ028-029-035-036-043>045-051>053-202300-
WEST CENTRAL INDIANA

CITY           SKY/WX    TMP DP  RH WIND       PRES   REMARKS
GREENCASTLE +  PTCLDY    28  16  59 W6        30.17R WCI  22
LAFAYETTE      MOCLDY    29  12  49 W12       30.14R WCI  19
TERRE HAUTE    CLEAR     30  15  53 W12       30.20R WCI  20

$$

INZ030>032-037>040-046>048-054>057-064-065-202300-
CENTRAL INDIANA

CITY           SKY/WX    TMP DP  RH WIND       PRES   REMARKS
CP ATTERBURY + CLEAR     32  14  47 W9        30.17R WCI  24
FRANKFORT +    PTCLDY    28  17  64 SW13      30.14R WCI  17
INDIANAPOLIS   PTCLDY    28  13  53 W16       30.15R WCI  16
-EAGLE CREEK   PTCLDY    28  13  53 W16G23    30.15R WCI  16
KOKOMO *+      PTCLDY    28  14  54 W15G24    30.11R WCI  17
MARION +       MOCLDY    26  15  63 W12       30.11R WCI  16
MT COMFORT *+  PTCLDY    27   7  43 W16G22    30.15R WCI  14
SHELBYVILLE    CLEAR     30  14  51 W15       30.15R WCI  19
ZIONSVILLE +   MOCLDY    28  14  57 W13G18    30.14R WCI  17

$$

INZ033-034-041-042-049-050-058-059-202300-
EAST CENTRAL INDIANA

CITY           SKY/WX    TMP DP  RH WIND       PRES   REMARKS
MUNCIE         CLOUDY    27  14  58 W15G22    30.11R WCI  15

$$

INZ060-061-067>069-081>083-085>088-202300-
SOUTHWEST INDIANA

CITY           SKY/WX    TMP DP  RH WIND       PRES   REMARKS
EVANSVILLE     CLEAR     34  18  52 W8        30.24R WCI  27
HUNTINGBURG *+ CLEAR     32  18  55 W8        30.23R WCI  25
WASHINGTON +   CLEAR     32  18  57 W9        30.21R WCI  24

$$

INZ062-063-066-070>080-084-089>092-202300-
SOUTH CENTRAL AND SOUTHEAST INDIANA

CITY           SKY/WX    TMP DP  RH WIND       PRES   REMARKS
BLOOMINGTON    CLEAR     30  15  53 W10       30.18R WCI  21

$$




USA.gov is the U.S. government's official web portal to all federal, state and local government web resources and services.